Tracking 18984 objects as of 24-Feb-2018
HD Live streaming from Space Station
objects crossing your sky now

FENGYUN 1C DEB

Track FENGYUN 1C DEB now!
10-day predictions


NORAD ID: 30224
Int'l Code: 1999-025WH
Perigee: 859.7 km
Apogee: 1,027.9 km
Inclination: 99.4 °
Period: 103.8 minutes
Semi major axis: 7314 km
RCS: 0.0474 m2 (small)
Launch date: May 10, 1999
Source: People's Republic of China (PRC)
Launch site: Taiyaun Space Center, China (TSC)

Note: This is SATELLITE DEBRIS
aabbcc
Your satellite tracking list
Your tracking list is empty




NASA's NSSDC Master Catalog

Two Line Element Set (TLE):
1 30224U 99025WH  18054.48135483  .00000125  00000-0  13656-3 0  9992
2 30224  99.3587   7.3135 0115034  27.1969  92.3176 13.87711409562171
Source of the keplerian elements: AFSPC